Overview Statistics Trail Chart Weather Telemetry Raw packets
 

This is the latest recevied weather packets stored in our database for station/object KQ7A. If no packets are shown the sender has not sent any weather packets the latest 10 day(s).

<< 24 25 26 27 28 29 30 >>
Time Temp. Humidity Pressure Rain* Wind** Luminosity Snow
1788515925 16.11° C 51% 1012.1 hPa 0 mm - 0 W/m² -
1788515620 15.56° C 50% 1012.2 hPa 0 mm - 0 W/m² -
1788515315 16.11° C 51% 1012.2 hPa 0 mm - 0 W/m² -
1788515011 16.11° C 50% 1012.4 hPa 0 mm - 0 W/m² -
1788514706 15.56° C 50% 1012.2 hPa 0 mm - 0 W/m² -
1788514401 15.56° C 52% 1012.2 hPa 0 mm - 0 W/m² -
1788514096 15.56° C 50% 1012.2 hPa 0 mm - 0 W/m² -
1788513793 15.56° C 50% 1012.3 hPa 0 mm - 0 W/m² -
1788513489 16.11° C 51% 1012.3 hPa 0 mm - 0 W/m² -
1788513189 16.11° C 49% 1012.3 hPa 0 mm - 0 W/m² -
1788512884 16.11° C 47% 1012.3 hPa 0 mm - 0 W/m² -
1788512580 16.11° C 49% 1012.5 hPa 0 mm - 0 W/m² -
1788512275 16.11° C 49% 1012.4 hPa 0 mm - 0 W/m² -
1788511970 16.11° C 49% 1012.3 hPa 0 mm - 0 W/m² -
1788511664 16.11° C 49% 1012.4 hPa 0 mm - 0 W/m² -
1788511360 16.11° C 48% 1012.2 hPa 0 mm - 0 W/m² -
1788511056 16.11° C 50% 1012.2 hPa 0 mm - 0 W/m² -
1788510752 16.11° C 49% 1012.4 hPa 0 mm - 0 W/m² -
1788510447 15.56° C 52% 1012.5 hPa 0 mm - 0 W/m² -
1788510142 15.56° C 52% 1012.5 hPa 0 mm - 0 W/m² -
1788509838 15.56° C 51% 1012.4 hPa 0 mm - 0 W/m² -
1788509533 15.56° C 53% 1012.6 hPa 0 mm - 0 W/m² -
1788509229 15.56° C 52% 1012.5 hPa 0 mm - 0 W/m² -
1788508924 15.56° C 51% 1012.9 hPa 0 mm - 0 W/m² -
1788508620 15.56° C 51% 1012.6 hPa 0 mm - 0 W/m² -

* Rain latest hour (hover to see other rain measurements)
** Current wind speed in m/s (hover to see current wind gust speed)